Forside
METAR-TAF:

METAR-TAF

Lufthavne :

Kaiser Lake Ozark, Missouri, USA

Breddekreds: 38-06N, længdekreds: 092-33W, højde: 265 m

Aktuelle vejr

Denne rapport blev lavet for 34 minutter siden, kl. 23:56 UTC
Vind stille
Temperatur -1°C
Fugtighed 74%
Tryk 1028 hPa
Sigt: 16.1 km
Brudte skyer i en højde af 12000 ft

METAR: KAIZ 142356Z AUTO 00000KT 10SM BKN120 M01/M05 A3037 RMK AO2 SLP297 60001 T10111050 10011 21011 56011 FZRANO

Tid: 18:30 (00:30 UTC)


TAF: fraværende

Vejrobservationer og prognoser fra mere end 4000 lufthavne (METAR og TAF).

De gule og røde prikker repræsenterer de meteorologiske stationer.

Flyt musen over at se navnet på stationen.

Så klik over at se vejr observationer og prognoser.

At skifte det kort: Klik på de grønne knapper med et sort kors for at zoome ind; på den grønne knap med en bindestreg for at zoome ud; eller på de grønne pile for tilstødende kort.


METAR-TAF: